sat.trackr.live / text

‹ back to catalog

ONEWEB-0391

NORAD 50471 · 2021-132C

PAYLOAD ACTIVE UNKNOWN

§ Identity

Operator
Country
UK
Launch date
2021-12-27
Launch site
TYMSC
Launch vehicle
Mass (kg)
RCS (m²)

Purposes: comms

External: N2YO · Heavens-Above · Gunter

§ Orbital elements

Epoch: 2026-09-20T04:45:28.547712Z

Period
109.29 min
Inclination
87.9200°
Eccentricity
0.0002182
Mean motion
13.17650023 rev/d
Perigee alt
1,192.1 km
Apogee alt
1,195.4 km
Semi-major
7,571.8 km
B*
7.1719e-5
RAAN
347.0122°
Arg perigee
123.6998°
Mean anomaly
236.4342°
Rev number
23,059

§ Raw data

ONEWEB-03911 50471U 21132C   26263.19824708  .00000041  00000+0  71719-4 0  99972 50471  87.9200 347.0122 0002182 123.6998 236.4342 13.17650023230596

JSON: /api/v1/satellites/50471 · /tle

For live sub-satellite position, see the globe view (requires WebGL).

§ Visibility from observer

Set your observer location to see the next 7 days of passes ≥ 10°. The values pass through the URL so the page stays shareable.

No JS? Fill the form by hand. The geolocation button needs JavaScript.